Weather History for St. Johnsbury, VT

Change the Weather History Date:

Tuesday, July 30, 2013

  Actual Average Record
Temperature  
Mean Temperature 66 °F 70 °F  
Max Temperature 75 °F 81 °F 97 °F (1959)
Min Temperature 57 °F 59 °F 39 °F (1952)
Degree Days  
Heating Degree Days 0 0  
Month to date heating degree days 10  
Since 1 June heating degree days 82  
Since 1 July heating degree days 10  
Cooling Degree Days 1 5  
Month to date cooling degree days 191 165  
Year to date cooling degree days 287 273  
Since 1 June cooling degree days 271 255  
Growing Degree Days 16 (Base 50)    
Moisture  
Dew Point 55 °F    
Average Humidity 72    
Maximum Humidity 97    
Minimum Humidity 46    
Precipitation  
Precipitation 0.00 in 0.15 in 1.65 in (1906)
Month to date precipitation 5.59 3.97  
Year to date precipitation 22.44 21.39  
Sea Level Pressure  
Sea Level Pressure 30.06 in    
Wind  
Wind Speed - (North)    
Max Wind Speed -    
Max Gust Speed -    
T = Trace of Precipitation, MM = Missing Value Source: NWS Daily Summary

Daily Weather History Graph

Daily Weather History Graph

Search for Another Location

Airport:

Trip Planner

Search our weather history database for the weather conditions in past years. The results will help you decide how hot, cold, wet, or windy it might be!

Date:

Astronomy

Jul. 30, 2013 Rise Set
Actual Time 5:33 AM EDT 8:15 PM EDT
Civil Twilight 4:59 AM EDT 8:48 PM EDT
Nautical Twilight 4:17 AM EDT 9:30 PM EDT
Astronomical Twilight 3:28 AM EDT 10:19 PM EDT
Moon No Moon Rise 2:31 PM EDT (7/30)
Length of Visible Light 15h 48m
Length of Day
14h 42m
Last Quarter, 41% of the Moon is Illuminated
Jul 30
Last Quarter
Aug 6
New
Aug 14
First Quarter
Aug 20
Full
Aug 28
Last Quarter

Hourly Weather History & Observations

Time (EDT) Temp. Dew Point Humidity Pressure Visibility Wind Dir Wind Speed Gust Speed Precip Events Conditions
12:54 AM 62.1 °F 59.0 °F 90% 30.04 in - North - - N/A   Unknown
1:54 AM 62.1 °F 59.0 °F 90% 30.05 in - North - - N/A   Unknown
2:54 AM 62.1 °F 59.0 °F 90% 30.05 in - North - - N/A   Unknown
3:54 AM 61.0 °F 59.0 °F 93% 30.04 in - North - - N/A   Unknown
4:54 AM 60.1 °F 57.9 °F 93% 30.05 in - North - - N/A   Unknown
5:54 AM 60.1 °F 59.0 °F 96% 30.06 in - North - - N/A   Unknown
6:54 AM 60.1 °F 57.9 °F 93% 30.07 in - North - - N/A   Unknown
7:54 AM 62.1 °F 57.9 °F 86% 30.07 in - North - - N/A   Unknown
8:54 AM 64.9 °F 55.9 °F 73% 30.09 in - North - - N/A   Unknown
9:54 AM 66.9 °F 53.1 °F 61% 30.09 in - North - - N/A   Unknown
10:54 AM 71.1 °F 51.1 °F 49% 30.08 in - North - - N/A   Unknown
11:54 AM 73.0 °F 51.1 °F 46% 30.07 in - North - - N/A   Unknown
12:54 PM 73.0 °F 51.1 °F 46% 30.06 in - North - - N/A   Unknown
1:54 PM 72.0 °F 50.0 °F 46% 30.06 in - North - - N/A   Unknown
2:54 PM 72.0 °F 51.1 °F 48% 30.05 in - North - - N/A   Unknown
3:54 PM 73.9 °F 52.0 °F 46% 30.03 in - North - - N/A   Unknown
4:54 PM 73.9 °F 52.0 °F 46% 30.02 in - North - - N/A   Unknown
5:54 PM 73.0 °F 52.0 °F 48% 30.02 in - North - - N/A   Unknown
6:54 PM 72.0 °F 53.1 °F 51% 30.04 in - North - - N/A   Unknown
7:54 PM 70.0 °F 55.0 °F 59% 30.05 in - North - - N/A   Unknown
8:54 PM 64.9 °F 57.0 °F 75% 30.06 in - North - - N/A   Unknown
9:54 PM 63.0 °F 57.0 °F 81% 30.07 in - North - - N/A   Unknown
10:54 PM 60.1 °F 55.9 °F 86% 30.08 in - North - - N/A   Unknown
11:54 PM 59.0 °F 55.9 °F 90% 30.08 in - North - - N/A   Unknown